View from above orbital plane
|
View from above satellite
|
Ground track
|
The orbit data is extracted from the following two-line orbital elements,
1 17295U 87003A 21058.98592587 .00000516 00000-0 25332-4 0 9992
2 17295 82.5114 253.6733 0004637 116.2716 243.8993 15.15858009863658
Epoch (UTC): | 27 February 2021 23:39:43 |
Eccentricity: | 0.0004637 |
inclination: | 82.5114° |
perigee height: | 515 km |
apogee height: | 521 km |
right ascension of ascending node: | 253.6733° |
argument of perigee: | 116.2716° |
revolutions per day: | 15.15858009 |
mean anomaly at epoch: | 243.8993° |
orbit number at epoch: | 86365 |
The dashed part of the orbit path shows where the satellite is in the earth's shadow,
|
|